Вернуться в каталог

OPS 4682 DEB

АктивенPO
NORAD 38424·DEBRIS·🇺🇸 United States

Запущен Apr 3, 1965 с Vandenberg Space Force Base

Loading…

Ближайшие Пролёты (ближайшие 24 часа)

TLE

СвежийSource: Space-Track

Эпоха: Sep 13, 2026, 18:19 UTC

1 38424U 65027ED  26256.76363108  .00000997  00000-0  31025-2 0  9994
2 38424  90.2576   9.2012 0024659 275.4145  84.4166 13.04009366323379

Отслеживайте OPS 4682 DEB в реальном времени с AllMySat

Download on the App Store